This demonstration page uses our WeatherBlox Daily Observations layout. Learn more.

36.17497, -115.13722

Hourly Observations for February 9, 2018

Temp ( °F °C ) Dew Point ( °F °C ) Humidity (%) Winds ( mph kmh ) Pressure ( in mb ) Visibility ( mi km ) Precip ( " mm )
12:53 am 00:53 Clear 56 13.3 22 -5.6 27 27 N 8 13 30.1 1019 10 16.0934 0 0
1:53 am 01:53 Clear 57 13.9 21 -6.1 25 25 NNW 7 11 30.09 1019 10 16.0934 0 0
2:53 am 02:53 Clear 54 12.2 22 -5.6 29 29 NNW 6 9 30.08 1019 10 16.0934 0 0
3:53 am 03:53 Clear 53 11.7 23 -5 31 31 NNW 7 11 30.06 1018 10 16.0934 0 0
4:53 am 04:53 Clear 53 11.7 21 -6.1 28 28 NW 6 9 30.06 1018 10 16.0934 0 0
5:53 am 05:53 Clear 50 10 23 -5 35 35 NNW 5 7 30.07 1018 10 16.0934 0 0
6:53 am 06:53 Sunny 49 9.4 25 -3.9 39 39 WNW 5 7 30.09 1019 10 16.0934 0 0
7:53 am 07:53 Sunny 54 12.2 22 -5.6 29 29 NNW 8 13 30.09 1019 10 16.0934 0 0
8:53 am 08:53 Sunny 59 15 24 -4.4 26 26 Calm 30.09 1019 10 16.0934 0 0
9:53 am 09:53 Sunny 64 17.8 23 -5 21 21 NNE 5 7 30.07 1018 10 16.0934 0 0
10:53 am 10:53 Sunny 66 18.9 23 -5 19 19 Calm 30.05 1018 10 16.0934 0 0
11:53 am 11:53 Sunny 69 20.6 23 -5 17 17 Calm 30.01 1016 10 16.0934 0 0
12:53 pm 12:53 Sunny 72 22.2 23 -5 16 16 SSE 5 7 29.96 1014 10 16.0934 0 0
1:53 pm 13:53 Sunny 74 23.3 24 -4.4 15 15 SE 6 9 29.91 1013 10 16.0934 0 0
2:53 pm 14:53 Sunny 75 23.9 24 -4.4 15 15 ESE 8 13 29.9 1012 10 16.0934 0 0
3:53 pm 15:53 Sunny 76 24.4 24 -4.4 14 14 E 6 9 29.88 1012 10 16.0934 0 0
4:53 pm 16:53 Sunny 73 22.8 24 -4.4 16 16 E 9 15 29.87 1012 10 16.0934 0 0
5:53 pm 17:53 Clear 68 20 25 -3.9 20 20 SSE 3 6 29.88 1012 10 16.0934 0 0
6:53 pm 18:53 Clear 68 20 26 -3.3 21 21 NNE 3 6 29.88 1012 10 16.0934 0 0
7:53 pm 19:53 Clear 64 17.8 27 -2.8 25 25 WNW 6 9 29.88 1012 10 16.0934 0 0
8:53 pm 20:53 Clear 62 16.7 28 -2.2 28 28 NNE 7 11 29.88 1012 10 16.0934 0 0
9:53 pm 21:53 Clear 60 15.6 28 -2.2 30 30 NW 7 11 29.87 1011 10 16.0934 0 0
10:53 pm 22:53 Clear 61 16.1 28 -2.2 29 29 Calm 29.87 1011 10 16.0934 0 0
11:53 pm 23:53 Clear 59 15 28 -2.2 31 31 Calm 29.85 1011 10 16.0934 0 0

Powered by AerisWeather